Silver Point, TN (38582)

9:42 AM CST on February 14, 2016 (GMT -0600)
Boma | | Change Station
CLOSE
Current Station
Personal Weather Station
Location: Baxter, TN
Elevation: 1047 ft
Nearby Weather Stations
Active Advisory: Winter Weather Advisory

Elev 1047 ft 36.13 °N, 85.68 °W | Updated 4 minutes ago

Overcast
Overcast
26.2 °F
Feels Like 21 °F
N
4.7
Wind Variable Wind from SSE

Today
High -- | Low -- °F
--% Chance of Precip.
Yesterday
High -- | Low -- °F
Precip. -- in
Pressure 30.28 in
Visibility 10.0 miles
Clouds Overcast 6500 ft
Windchill 21 °F
Dew Point 10 °F
Humidity 49%
Rainfall 0.00 in
Snow Depth Not available.
6:32 AM 5:22 PM
Waxing Crescent, 42% visible
METAR KSRB 141535Z AUTO 14007KT 10SM OVC065 M03/M13 A3028 RMK
Pressure 30.28 in
Visibility 10.0 miles
Clouds Overcast 6500 ft
Windchill 21 °F
Dew Point 10 °F
Humidity 49%
Rainfall 0.00 in
Snow Depth Not available.
6:32 AM 5:22 PM
Waxing Crescent, 42% visible
METAR KSRB 141535Z AUTO 14007KT 10SM OVC065 M03/M13 A3028 RMK

10-Day Weather Forecast

Almanac

Astronomy

Feb. 14, 2016 Rise Set
Actual Time
Civil Twilight
Nautical Twilight
Astronomical Twilight
Moon
Length of Visible Light
Length of Day
Tomorrow will be .
, % of the Moon is Illuminated

Today's Extremes

State Highs State Lows

Community

WunderPhotos

Upload Photos

1,892,802 photos uploaded!

WunderBlog® & News

Nearby

Air Quality

  Air Quality AQ Index Pollutant
Not available.

Snow Depth

Station Depth Elevation

Earthquake Activity

City Distance Mag. Time & Date
Minimum magnitude displayed is 2.5.

Coastal Water Temperatures

Place Temperature

Stations

Nearby Weather Stations

Station Location Temp. Windchill Dew Point Humidity Wind Precip. Elev Updated Type
                   

Watches & Warnings

Winter Weather Advisory
Issued: 9:08 AM CST Feb. 14, 2016 – National Weather Service

... Winter Weather Advisory remains in effect until 6 am CST
Monday...

* timing... noon Sunday until 6 am CST Monday.

* Main impact... hazardous travel conditions across the advisory
area due to a wintry mix of snow... sleet and freezing rain.

* Accumulations... 1 to 2 inches of snow... with around 3 inches
for the higher elevations and along the Kentucky border.
Around one tenth of an inch of ice from freezing rain is
possible.

Precautionary/preparedness actions...

A Winter Weather Advisory means that periods of snow... sleet... or
freezing rain will cause travel difficulties. Be prepared for
slippery roads and limited visibilities... and use caution while
driving.